This is the latest recevied weather packets stored in our database for station/object FW7644. If no packets are shown the sender has not sent any weather packets the latest 10 day(s).
| Time | Temp. | Humidity | Pressure | Rain* | Wind** | Luminosity | Snow |
|---|---|---|---|---|---|---|---|
| 1778168792 | 27.78° C | 45% | 1015.4 hPa | 0 mm | - | - | - |
| 1778168488 | 27.78° C | 43% | 1015.5 hPa | 0 mm | - | - | - |
| 1778168186 | 27.78° C | 44% | 1015.6 hPa | 0 mm | - | - | - |
| 1778167884 | 27.22° C | 45% | 1015.6 hPa | 0 mm | - | - | - |
| 1778167582 | 27.22° C | 46% | 1015.7 hPa | 0 mm | - | - | - |
| 1778167280 | 27.78° C | 45% | 1015.9 hPa | 0 mm | - | - | - |
| 1778166979 | 27.78° C | 45% | 1015.9 hPa | 0 mm | - | - | - |
| 1778166677 | 27.78° C | 45% | 1016 hPa | 0 mm | - | - | - |
| 1778166376 | 27.78° C | 44% | 1016.1 hPa | 0 mm | - | - | - |
| 1778166074 | 27.78° C | 45% | 1016.2 hPa | 0 mm | - | - | - |
| 1778165772 | 27.22° C | 46% | 1016.4 hPa | 0 mm | - | - | - |
| 1778165470 | 26.67° C | 48% | 1016.5 hPa | 0 mm | - | - | - |
| 1778165168 | 27.78° C | 47% | 1016.6 hPa | 0 mm | - | - | - |
| 1778164867 | 27.22° C | 48% | 1016.7 hPa | 0 mm | - | - | - |
| 1778164565 | 27.22° C | 49% | 1016.8 hPa | 0 mm | - | - | - |
| 1778164263 | 26.67° C | 49% | 1016.8 hPa | 0 mm | - | - | - |
| 1778163961 | 26.67° C | 50% | 1016.9 hPa | 0 mm | - | - | - |
| 1778163659 | 27.22° C | 51% | 1017 hPa | 0 mm | - | - | - |
| 1778163359 | 26.67° C | 51% | 1017 hPa | 0 mm | - | - | - |
| 1778163057 | 26.67° C | 54% | 1017 hPa | 0 mm | - | - | - |
| 1778162755 | 26.11° C | 57% | 1017 hPa | 0 mm | - | - | - |
| 1778162452 | 26.67° C | 57% | 1017.2 hPa | 0 mm | - | - | - |
| 1778162150 | 26.11° C | 62% | 1017.2 hPa | 0 mm | - | - | - |
| 1778161849 | 26.11° C | 60% | 1017.2 hPa | 0 mm | - | - | - |
| 1778161547 | 26.11° C | 60% | 1017.3 hPa | 0 mm | - | - | - |
* Rain latest hour (hover to see other rain measurements)
** Current wind speed in m/s (hover to see current wind gust speed)